Back to catalog

CZ-4C R/B

AlivePO
NORAD 57959·ROCKET BODY·🇨🇳 China

Launched Sep 26, 2023 from Jiuquan Satellite Launch Center

Loading…

Next Passes (next 24 hours)

TLE

FreshSource: Space-Track

Epoch: Sep 14, 2026, 12:46 UTC

1 57959U 23149B   26257.53205958  .00002041  00000-0  15074-3 0  9990
2 57959  98.1844 270.7146 0111651  71.7523 289.5812 14.99622614161993

Track CZ-4C R/B in real time with AllMySat

Download on the App Store